Find Local Weather

World > North America > United States > New York

Sanborn, New York Regional Weather

Lat: 43.14N, Lon: 78.89W
Wx Zone: NYZ001
Warning FLW WEATHER ALERT - (More Info. Click Here) Warning
Feedback

Sanborn, NY Regional Weather

Expires:201905192200;;134076
ASUS41 KALY 192110
RWRALY

NEW YORK STATE HOURLY WEATHER ROUNDUP
NATIONAL WEATHER SERVICE ALBANY NY
500 PM EDT SUN MAY 19 2019

NOTE: "FAIR" INDICATES FEW OR NO CLOUDS BELOW 12,000 FEET WITH NO
SIGNIFICANT WEATHER AND/OR NO OBSTRUCTIONS TO VISIBILITY.


NYZ001>004-010>016-019>021-085-192200-
WEST

  
CITY           SKY/WX    TMP DP  RH WIND       PRES   REMARKS
NIAGARA FALLS  FAIR      85  60  42 SW22G29   29.69F                  
BUFFALO        PTSUNNY   82  61  48 SW13      29.72F                  
DUNKIRK        FAIR      85  55  35 W17G28    29.73F                  
JAMESTOWN      CLOUDY    81  55  40 SW16G28   29.80F                  
WELLSVILLE     FAIR      82  57  42 SW14G25   29.84F                  
ROCHESTER      CLOUDY    80  67  64 SE9       29.73F                  
PENN YAN       FAIR      77  65  66 VRB5      29.79F                  
$$

             KEY
       WCI = WIND CHILL INDEX
       VSB = VISIBILITY
       HX  = HEAT INDEX
$$
  

SKY/WX - Weather  TMP - Temperature  DP - Dew Point  RH - Relative Humidity
WIND - Wind Direction/Speed PRES - Barometric Pressure VSB - Visibility
WCI - Wind Chill Index E13G22 Wind - East Wind 13 mph/Gusts of 22 mph